{"data":{"norad_id":65298,"intl_designator":"2025-185B","name":"FOURIER","alt_names":[],"object_type":"PAYLOAD","status":"ACTIVE","operator":null,"country":"RWA","launch_date":"2025-08-23","launch_site_code":"RLLB","launch_vehicle":null,"mission":null,"orbit_class":"UNKNOWN","rcs_meters":null,"size_class":null,"mass_kg":null,"dimensions":null,"purposes":[],"wikipedia_slug":null,"has_3d_model":false,"image_url":null,"decayed_at":null,"tle_current":{"epoch":"2026-09-21T19:29:28.505472Z","epoch_age_seconds":48955,"freshness":"FRESH","line1":"1 65298U 25185B   26264.81213548  .00005758  00000+0  75011-3 0  9994","line2":"2 65298  97.9647 347.4288 0015214 133.4278 226.8203 14.80897334 58138","mean_motion":14.80897334,"eccentricity":0.0015214,"inclination_deg":97.9647,"raan_deg":347.4288,"arg_perigee_deg":133.4278,"mean_anomaly_deg":226.8203,"bstar":0.00075011,"rev_number":5813,"period_min":97.238341034112,"perigee_km":615.83627347883,"apogee_km":637.14996200109,"semimajor_km":7004.63011774,"source":"CELESTRAK","updated_at":"2026-09-22T09:00:30.254688Z"}}}